ARIANE 42P DEB, 44513

Orbit data source: Space-Track

ARIANE 42P DEB, 44513 is space debris in LEO originally from a launch on Mon, 10 Aug 1992 UTC launched from the French Guiana (FRGUI). Debris objects in space refer to the collection of defunct objects orbiting the Earth. Examples of debris include non-operational satellites, rocket bodies, and fragments generated from explosions, collisions, or faulty payload assembly.

Loading next visibility...
Identifier
44513, 1992-052L
Orbit
LEO
Country
Flag of FRFR
Related business
Manufacturer
ArianeGroup
Mission
Spacecraft
Bus & Motor
Unknown
Mass
Unknown
Launch date (UTC)
1992-08-10 (33 years ago)
Launch vehicle
Unknown
Launch site
French Guiana (FRGUI)
Object type
Payload
Rocket body
Debris
Shape & HBR
Unknown shape, 0.1 m
Radar Cross Section
Small (<0.1 m²)

Expand to show TLE details & history
Last TLE update: 2 weeks ago

TLE from 2 weeks ago
0 ARIANE 42P DEB
1 44513U 92052L   25291.71988585  .00000041  00000-0  44776-3 0  9991
2 44513  66.0414  82.8730 0057191  84.3373 276.4159 12.79589901287821
Epoch: 2025-10-18T17:16Z
TLE epoch observation values (Epoch: 2025-10-18T17:16:38.137Z)
Latitude
-0.00006°
Longitude
156.26721°
Altitude
1,340.343 km
Speed
7.19 km/s
True Right ascension
05h 31m 29s
True Declination
0° 00' 00"
Sunlit
Object was in daylight at epoch
Visualization orbit readout
Latitude
Unknown
Longitude
Unknown
Altitude
Unknown
Speed
Unknown
Apparent Right ascension
Unknown
Apparent Declination
Unknown
Sunlit
N/A
Visualization observer readout
Local Sidereal Time
22:30:55
Azimuth
Unknown
Elevation
Unknown
Doppler factor
Unknown
Orbital elements
Apogee altitude
1,385.834 km
Perigee altitude
1,297.533 km
Semi-major axis
7,719.82 km
Eccentricity
0.00572
Inclination
66.0414°
RAAN
82.873°
Arg. of periapsis
84.3373°
True anomaly
275.76414°
Mean anomaly
276.4159°
Eccentric anomaly
276.09007°
Mean motion
3.19987 °/min
Orbital period
112.5 mins
BSTAR
0.00044776
Loading maneuver chart data...
Computing Atmospheric mass density...
Loading historical data...
Loading historical data...
Loading historical data...
Loading historical data...
Loading historical data...
Loading historical data...
Loading historical data...

Documentation

Showing up to 5 results
|